Harrison, AR

10:29 PM CDT on May 24, 2018 (GMT -0500)
Boone County

Weather History for KHRO - April, 2013

Change the Weather History Date:

Friday, April 26, 2013

  Actual Average Record
Temperature  
Mean Temperature 52 °F 61 °F  
Max Temperature 56 °F 72 °F 92 °F (1927)
Min Temperature 47 °F 50 °F 26 °F (1910)
Degree Days  
Heating Degree Days 13 5  
Month to date heating degree days 267 221  
Since 1 July heating degree days 3820 3901  
Cooling Degree Days 0 1  
Month to date cooling degree days 20 26  
Year to date cooling degree days 27 32  
Moisture  
Dew Point 45 °F    
Average Humidity 76    
Maximum Humidity 100    
Minimum Humidity 51    
Precipitation  
Precipitation 1.32 in 0.16 in 2.33 in (2017)
Month to date precipitation 3.47 3.66  
Year to date precipitation 12.69 12.65  
Snow  
Snow 0.00 in 0.00 in - ()
Month to date snowfall T 0.3  
Since 1 July snowfall 4.6 11.5  
Snow Depth 0.00 in    
Sea Level Pressure  
Sea Level Pressure 30.26 in    
Wind  
Wind Speed 12 mph (ESE)    
Max Wind Speed 22 mph    
Max Gust Speed 29 mph    
Visibility 7 miles    
Events Rain , Thunderstorm    
T = Trace of Precipitation, MM = Missing Value Source: NWS Daily Summary

Daily Weather History Graph

Daily Weather History Graph

Search for Another Location

Airport or City:

Astronomy

Apr. 26, 2013 Rise Set
Actual Time 6:24 AM CDT 7:56 PM CDT
Civil Twilight 5:57 AM CDT 8:23 PM CDT
Nautical Twilight 5:25 AM CDT 8:56 PM CDT
Astronomical Twilight 4:50 AM CDT 9:30 PM CDT
Moon 9:17 PM CDT (4/26) 6:54 AM CDT (4/26)
Length of Visible Light 14h 25m
Length of Day
13h 31m
Full, 99% of the Moon is Illuminated
Apr 26
Full
May 2
Last Quarter
May 9
New
May 17
First Quarter
May 24
Full

Hourly Weather History & Observations

Time (CDT) Temp. Windchill Dew Point Humidity Pressure Visibility Wind Dir Wind Speed Gust Speed Precip Events Conditions
12:53 AM 55.9 °F - 37.0 °F 49% 30.24 in 10.0 mi SSE 11.5 mph - N/A   Clear
1:53 AM 53.6 °F - 39.2 °F 58% 30.27 in 10.0 mi SSE 9.2 mph - N/A   Clear
2:53 AM 53.1 °F - 39.0 °F 59% 30.23 in 10.0 mi SSE 13.8 mph - N/A   Scattered Clouds
3:53 AM 54.0 °F - 39.0 °F 57% 30.19 in 10.0 mi SSE 15.0 mph - N/A   Overcast
4:53 AM 51.1 °F - 42.1 °F 71% 30.28 in 6.0 mi WNW 10.4 mph - 0.02 in Rain , Thunderstorm Thunderstorms and Rain
5:02 AM 48.2 °F - 42.8 °F 82% 30.30 in 1.8 mi Calm Calm - 0.17 in Rain , Thunderstorm Heavy Thunderstorms and Rain
5:13 AM 46.4 °F 42.9 °F 42.8 °F 87% 30.25 in 3.0 mi ESE 6.9 mph - 0.27 in Rain , Thunderstorm Heavy Thunderstorms and Rain
5:37 AM 46.4 °F 43.5 °F 42.8 °F 87% 30.24 in 10.0 mi ESE 5.8 mph - 0.27 in Rain Light Rain
5:44 AM 48.2 °F - 44.6 °F 87% 30.24 in 10.0 mi Calm Calm - 0.27 in Rain , Thunderstorm Light Rain
5:53 AM 46.9 °F - 45.0 °F 93% 30.25 in 10.0 mi NNW 8.1 mph - 0.28 in Rain , Thunderstorm Light Thunderstorms and Rain
6:42 AM 48.2 °F - 44.6 °F 87% 30.29 in 10.0 mi North 8.1 mph - 0.01 in   Overcast
6:53 AM 48.0 °F - 45.0 °F 89% 30.31 in 10.0 mi North 8.1 mph - 0.01 in Thunderstorm Overcast
7:07 AM 48.2 °F - 44.6 °F 87% 30.30 in 9.0 mi NE 6.9 mph - 0.01 in Rain Light Rain
7:27 AM 48.2 °F - 44.6 °F 87% 30.33 in 2.0 mi WNW 4.6 mph - 0.04 in Rain , Thunderstorm Light Rain
7:35 AM 48.2 °F - 44.6 °F 87% 30.29 in 1.8 mi SE 12.7 mph - 0.04 in Rain , Thunderstorm Light Thunderstorms and Rain
7:42 AM 48.2 °F - 44.6 °F 87% 30.30 in 4.0 mi SE 8.1 mph - 0.10 in Rain , Thunderstorm Heavy Thunderstorms and Rain
7:53 AM 48.0 °F - 44.1 °F 86% 30.28 in 7.0 mi ESE 11.5 mph - 0.12 in Rain , Thunderstorm Light Thunderstorms and Rain
8:15 AM 48.2 °F - 44.6 °F 87% 30.29 in 10.0 mi SE 8.1 mph - 0.00 in   Overcast
8:53 AM 48.0 °F - 45.0 °F 89% 30.30 in 8.0 mi East 8.1 mph - 0.06 in Rain Light Rain
9:08 AM 48.2 °F - 44.6 °F 87% 30.32 in 10.0 mi East 6.9 mph - 0.00 in Thunderstorm Thunderstorm
9:53 AM 46.9 °F - 42.1 °F 83% 30.29 in 8.0 mi ENE 11.5 mph 17.3 mph 0.13 in Rain , Thunderstorm Light Thunderstorms and Rain
10:53 AM 46.9 °F - 44.1 °F 90% 30.34 in 5.0 mi SE 9.2 mph - 0.10 in Rain Light Rain
11:42 AM 46.4 °F 40.7 °F 44.6 °F 93% 30.31 in 6.0 mi ESE 12.7 mph 17.3 mph 0.08 in Rain , Thunderstorm Light Thunderstorms and Rain
11:53 AM 46.9 °F - 45.0 °F 93% 30.39 in 5.0 mi Variable 3.5 mph - 0.10 in Rain , Thunderstorm Thunderstorms and Rain
11:59 AM 46.4 °F 42.9 °F 44.6 °F 93% 30.37 in 1.8 mi North 6.9 mph - 0.08 in Rain , Thunderstorm Heavy Rain
12:10 PM 46.4 °F 44.3 °F 44.6 °F 93% 30.39 in 3.0 mi North 4.6 mph - 0.12 in Rain , Thunderstorm Rain
12:22 PM 46.4 °F 42.9 °F 44.6 °F 93% 30.38 in 2.0 mi ENE 6.9 mph - 0.19 in Rain , Thunderstorm Heavy Rain
12:31 PM 46.4 °F 42.4 °F 44.6 °F 93% 30.35 in 2.5 mi ENE 8.1 mph - 0.23 in Rain Heavy Rain
12:39 PM 48.2 °F - 44.6 °F 87% 30.35 in 6.0 mi East 9.2 mph - 0.23 in Rain Light Rain
12:53 PM 48.0 °F - 45.0 °F 89% 30.32 in 10.0 mi East 12.7 mph - 0.23 in   Overcast
1:28 PM 46.4 °F 40.4 °F 44.6 °F 93% 30.29 in 2.5 mi ESE 13.8 mph - 0.10 in Rain , Thunderstorm Heavy Thunderstorms and Rain
1:37 PM 46.4 °F 41.1 °F 44.6 °F 93% 30.28 in 6.0 mi ESE 11.5 mph - 0.11 in Rain , Thunderstorm Light Thunderstorms and Rain
1:49 PM 48.2 °F - 46.4 °F 93% 30.27 in 10.0 mi ESE 9.2 mph - 0.11 in Rain Light Rain
1:53 PM 48.0 °F - 46.0 °F 93% 30.27 in 10.0 mi East 11.5 mph - 0.11 in   Overcast
2:04 PM 48.2 °F - 46.4 °F 93% 30.29 in 10.0 mi ESE 8.1 mph - N/A   Overcast
2:53 PM 48.9 °F - 46.9 °F 93% 30.26 in 10.0 mi ESE 10.4 mph - 0.00 in Rain Light Rain
3:53 PM 52.0 °F - 46.9 °F 83% 30.22 in 10.0 mi SE 18.4 mph 25.3 mph 0.00 in   Overcast
4:53 PM 50.0 °F - 46.9 °F 89% 30.20 in 10.0 mi SE 13.8 mph - N/A   Overcast
5:53 PM 50.0 °F - 46.9 °F 89% 30.18 in 10.0 mi SE 18.4 mph - 0.00 in   Overcast
5:56 PM 50.0 °F - 46.4 °F 87% 30.19 in 10.0 mi SSE 13.8 mph 24.2 mph N/A Thunderstorm Overcast
6:15 PM 50.0 °F - 46.4 °F 87% 30.19 in 10.0 mi SSE 17.3 mph - 0.00 in   Overcast
6:30 PM 50.0 °F - 46.4 °F 87% 30.18 in 8.0 mi SSE 19.6 mph 27.6 mph 0.00 in   Overcast
6:53 PM 50.0 °F - 46.9 °F 89% 30.19 in 9.0 mi SE 12.7 mph 21.9 mph 0.00 in   Overcast
7:11 PM 48.2 °F - 48.2 °F 100% 30.19 in 6.0 mi SE 11.5 mph - 0.01 in   Overcast
7:15 PM 48.2 °F - 48.2 °F 100% 30.19 in 7.0 mi SE 13.8 mph - 0.01 in   Overcast
7:53 PM 48.9 °F - 48.0 °F 97% 30.19 in 5.0 mi SE 16.1 mph - 0.02 in Rain Light Rain
8:04 PM 48.2 °F - 48.2 °F 100% 30.19 in 6.0 mi SE 16.1 mph - 0.00 in   Overcast
8:53 PM 48.9 °F - 48.0 °F 97% 30.18 in 6.0 mi SE 13.8 mph - 0.00 in   Overcast
9:02 PM 48.2 °F - 48.2 °F 100% 30.18 in 5.0 mi ESE 10.4 mph - 0.00 in Rain Light Rain
9:39 PM 48.2 °F - 48.2 °F 100% 30.19 in 2.5 mi SE 15.0 mph - 0.09 in Rain Heavy Rain
9:50 PM 48.2 °F - 48.2 °F 100% 30.18 in 3.0 mi SE 16.1 mph - 0.09 in Rain Light Rain
9:53 PM 48.9 °F - 48.0 °F 97% 30.18 in 4.0 mi SE 13.8 mph - 0.09 in Rain Light Rain
10:53 PM 48.9 °F - 48.0 °F 97% 30.20 in 5.0 mi SE 13.8 mph - 0.05 in Rain Light Rain
11:15 PM 48.2 °F - 48.2 °F 100% 30.18 in 6.0 mi ESE 12.7 mph - 0.00 in   Overcast
11:29 PM 48.2 °F - 48.2 °F 100% 30.18 in 5.0 mi SE 12.7 mph - 0.00 in   Overcast
11:53 PM 48.9 °F - 48.0 °F 97% 30.19 in 4.0 mi SE 12.7 mph - 0.00 in   Overcast